Dewpoint
62 62 56 48 50 41 32 39 25 26 28 21 20 19 16 13 14 10 8 8 6 29 25 17 15 22 43 53 54 55 57 58 59 49 50 65 66 67 67 67 68 70 72 73 74 73 73 74 74 74 74 73 73 74 74 74 74 73 73 73 73 73 73 73 72 72 72 72 72 72 72 72 72 71 71 71 72 72 71 69 68 68 69 69 68 68 68 68 69 69 68 68 67 67 68 69 69
54 52 51 46 41 33 32 31 30 25 27 18 17 17 17 18 18 10 7 7 26 28 31 27 25 22 32 51 56 57 58 61 63 64 65 65 65 66 67 67 68 70 72 72 73 73 73 73 74 74 73 73 74 74 74 74 74 74 73 73 73 73 73 73 72 72 72 72 72 72 72 72 71 71 71 71 70 72 71 69 68 68 68 67 68 68 68 68 69 69 68 68 67 66 66 67 67
47 46 42 42 41 36 35 32 26 23 19 15 14 14 15 11 11 14 15 31 32 31 29 27 27 30 47 53 54 55 56 62 64 65 64 65 63 65 66 67 69 70 71 71 72 73 73 73 74 74 73 73 74 74 74 74 74 74 74 73 73 73 73 73 73 72 72 72 72 71 71 71 71 71 71 70 71 72 71 70 68 68 67 68 67 67 67 67 68 68 68 68 67 66 66 66 67
59 52 46 43 35 36 37 33 27 22 18 17 17 18 15 12 10 7 35 36 33 30 28 27 32 49 50 52 55 58 57 59 64 65 65 65 64 65 66 67 68 68 69 71 71 72 73 74 74 73 73 74 74 74 74 74 74 74 73 73 73 73 73 73 73 72 72 72 72 72 71 71 71 71 71 70 70 70 71 71 70 68 68 68 68 68 67 67 67 68 68 67 67 67 66 67 67
56 51 48 46 32 38 39 36 30 23 20 18 15 16 14 13 15 26 30 31 33 30 28 27 35 56 57 56 57 56 58 61 62 64 65 66 66 67 66 66 66 67 69 70 71 72 73 74 73 73 73 73 73 74 74 74 74 73 73 73 73 73 73 73 73 72 72 72 72 72 71 71 71 70 70 70 69 69 71 71 71 70 70 71 71 71 71 69 68 68 68 67 67 67 67 67 67
48 43 45 46 30 32 27 30 27 28 26 23 20 18 15 7 22 17 21 25 32 29 29 37 42 54 56 59 60 59 62 59 64 65 66 66 67 66 64 65 65 66 68 70 71 72 73 73 73 73 73 73 73 73 73 73 73 73 73 73 73 73 73 73 72 72 72 72 72 72 71 71 71 71 71 70 69 69 69 69 69 69 69 69 69 69 69 70 69 69 68 67 68 67 67 67 67
42 41 39 39 29 29 31 30 28 24 22 24 24 22 19 9 13 12 10 11 23 18 30 37 53 54 55 59 61 63 65 65 65 65 66 66 67 65 65 63 65 67 68 70 71 72 73 73 73 73 73 73 73 73 74 74 73 74 74 74 73 73 73 73 72 72 72 72 72 71 71 71 71 71 70 71 70 69 69 69 69 68 69 69 69 69 68 68 69 69 68 68 68 68 68 67 67
41 31 29 23 23 27 27 26 27 28 26 18 15 17 14 8 7 7 11 13 17 13 29 38 50 54 56 59 59 64 67 68 67 67 67 66 66 65 64 64 65 67 69 70 71 72 73 72 73 73 73 73 73 74 74 74 74 74 74 73 73 73 73 72 72 72 72 71 71 71 71 71 71 71 71 70 70 69 69 69 69 69 68 69 69 69 69 70 69 69 68 68 69 68 68 67 67
29 24 29 25 22 24 22 24 23 24 22 18 15 16 32 12 11 10 10 12 9 15 23 32 52 53 57 60 61 64 67 68 68 69 69 69 67 65 64 65 66 68 69 70 72 72 72 73 72 72 73 73 73 73 74 74 74 74 73 73 73 73 73 72 72 72 72 72 72 71 71 71 71 71 71 71 71 70 69 69 69 68 68 68 68 69 69 69 69 68 68 68 68 68 68 67 67
24 22 26 25 18 14 10 12 15 16 14 11 8 6 7 6 15 11 9 7 6 12 18 36 54 56 59 59 61 63 66 67 67 67 68 70 70 67 67 68 68 68 69 71 71 72 72 73 72 72 72 73 73 73 73 73 73 73 73 73 73 73 73 72 72 72 72 72 72 71 71 71 71 71 71 71 71 71 69 69 69 68 68 68 68 68 69 69 69 68 68 67 67 68 68 67 67
21 22 25 29 24 17 13 9 8 9 8 6 1 0 4 5 6 5 6 6 4 3 21 53 56 58 60 61 62 66 68 67 67 66 68 69 70 69 68 69 69 69 70 70 71 71 72 72 73 72 72 72 72 72 72 72 72 72 72 72 73 73 72 72 72 72 72 71 71 71 71 71 71 71 71 71 71 70 70 69 69 68 69 69 69 69 69 69 69 68 68 68 68 68 68 68 67
24 21 21 18 22 21 17 10 7 8 9 6 -2 2 6 7 6 10 5 9 2 -2 7 36 55 59 59 60 62 66 67 67 66 67 67 68 70 69 69 69 70 70 70 70 71 71 71 72 72 73 72 72 72 72 72 72 72 72 72 72 72 72 72 72 72 72 71 71 71 71 71 71 71 71 71 71 70 70 70 69 69 69 69 69 70 70 69 69 68 68 69 69 68 68 68 68 67
24 17 15 19 19 18 18 15 11 14 10 7 2 6 6 7 8 6 7 7 6 -1 -3 40 58 59 59 60 63 66 66 67 68 68 67 68 68 69 69 69 69 69 70 70 70 71 71 71 72 72 72 72 72 72 72 72 72 72 72 72 72 72 72 72 72 72 71 71 71 71 71 71 71 71 71 70 70 70 70 69 69 69 69 69 69 69 68 68 68 68 68 68 68 68 68 68 67
19 16 23 17 14 7 3 2 2 1 -2 5 9 15 17 10 16 13 7 9 5 2 39 56 59 61 61 61 62 63 66 68 68 67 67 68 68 68 68 68 68 68 69 69 69 70 70 71 71 71 71 71 71 72 72 72 72 72 72 72 72 72 72 72 72 71 71 71 71 71 71 71 71 71 71 71 70 70 69 69 69 69 69 69 69 69 69 69 68 68 68 68 68 68 68 68 68
16 21 18 18 13 15 13 6 0 -1 -2 4 16 17 19 20 15 15 17 18 14 17 49 59 59 57 57 59 60 62 65 67 67 67 67 68 68 69 68 68 68 68 68 69 69 69 70 70 71 71 71 70 70 70 71 71 72 72 72 71 71 71 71 71 71 71 71 71 71 71 71 71 70 71 70 70 70 70 69 70 69 69 69 68 69 69 69 68 68 68 68 67 68 68 68 68 68
14 15 20 20 14 13 13 12 11 5 -3 8 12 17 17 13 22 22 21 21 19 45 47 48 52 55 58 60 61 63 66 66 67 68 67 68 68 68 68 68 67 67 68 68 68 69 70 70 70 70 70 70 70 70 70 71 72 72 71 71 71 71 71 71 71 71 71 71 70 70 70 70 70 70 70 70 70 70 70 69 69 69 69 69 68 68 68 68 68 68 68 68 67 67 68 67 67
12 13 15 17 12 10 8 8 8 6 1 9 10 10 9 12 25 21 21 21 33 56 58 59 59 61 61 62 64 66 66 67 67 67 67 67 67 67 67 67 67 67 68 68 69 69 70 70 70 70 70 70 69 69 69 70 71 71 71 71 72 72 71 71 70 71 70 70 70 70 70 69 69 69 69 69 70 70 70 70 69 69 69 68 68 68 68 68 67 68 68 68 68 67 67 67 67
15 15 13 12 11 9 10 9 9 7 9 10 10 11 8 9 17 25 23 34 52 55 58 60 62 62 64 65 66 67 66 66 66 65 65 65 65 66 66 66 66 66 67 68 68 69 69 69 69 69 69 69 69 69 68 69 70 70 70 70 71 70 70 70 70 70 71 70 70 69 69 70 68 68 69 70 69 70 69 69 69 69 69 68 68 68 67 67 67 67 67 67 68 68 67 65 66
10 18 15 9 9 9 11 13 13 6 4 10 10 14 13 10 17 30 26 24 50 52 56 60 60 62 64 66 66 66 66 66 66 65 64 64 64 64 65 65 65 65 66 66 67 68 68 68 68 68 68 68 68 67 67 67 67 69 69 69 70 70 69 70 70 70 69 68 68 69 70 69 68 69 69 69 70 69 69 69 69 69 69 68 68 67 67 67 67 67 67 67 68 68 66 66 64
10 13 13 11 10 11 11 11 9 7 9 7 9 10 9 10 12 27 25 32 47 50 53 58 59 61 63 65 66 66 66 66 66 66 65 64 64 64 64 65 65 65 65 66 67 68 68 67 66 66 68 68 68 67 66 66 67 67 67 68 68 68 68 68 68 68 68 68 69 69 69 70 69 68 68 69 70 69 69 69 69 69 68 68 68 67 66 66 66 67 67 67 68 68 65 64 64
11 11 10 11 12 12 12 12 9 5 7 12 13 13 8 6 9 15 29 33 43 47 53 57 59 60 62 64 65 65 64 64 64 64 65 65 65 64 64 64 65 65 65 66 67 67 67 66 65 66 68 68 67 68 66 67 67 67 67 67 67 67 67 67 67 67 67 67 68 68 68 69 68 67 67 68 68 68 68 68 68 67 67 67 68 65 65 65 66 64 63 66 64 64 63 62 61
7 10 11 11 12 11 12 11 6 10 10 7 8 10 9 8 9 7 23 32 37 43 50 58 59 60 61 63 64 64 63 63 64 63 64 65 65 64 64 64 66 66 66 65 66 66 67 66 67 67 67 67 67 67 66 68 68 67 66 67 66 66 66 67 67 67 67 67 68 68 68 67 67 66 66 67 67 67 67 66 66 66 65 66 67 66 65 64 64 63 63 62 63 63 62 62 62
4 3 8 12 12 11 11 9 10 10 11 9 9 8 8 10 9 10 8 35 40 45 49 54 57 57 60 63 65 65 63 62 63 64 65 65 65 65 64 64 65 65 66 65 66 66 67 67 67 67 67 67 67 68 68 68 68 67 67 67 66 65 65 66 66 66 67 68 68 68 67 67 66 65 66 66 66 66 66 66 65 65 65 65 66 65 65 65 64 63 63 63 62 62 61 62 62
6 1 5 7 10 10 10 8 10 10 11 12 13 10 7 9 10 16 8 41 44 45 49 52 54 57 61 63 65 65 63 63 63 64 65 66 65 65 64 64 65 66 65 66 66 66 67 67 67 67 67 67 66 67 68 67 67 67 67 66 65 67 66 66 66 67 68 68 68 67 68 66 66 65 66 66 66 66 66 66 67 67 66 67 68 66 65 65 65 65 64 64 64 63 62 61 61
6 4 4 6 9 10 9 9 6 6 10 11 12 8 4 10 11 9 6 21 45 46 49 53 56 58 60 62 64 64 64 63 63 63 65 66 66 66 65 65 64 64 65 65 65 65 66 66 67 67 67 67 67 67 67 66 67 66 65 65 66 68 66 65 66 67 67 67 67 67 67 66 66 66 66 66 65 65 65 65 66 66 66 66 66 66 66 65 65 64 64 64 63 62 62 60 60
6 4 5 6 7 9 8 8 6 5 8 9 9 4 6 5 8 5 5 14 44 45 47 52 57 58 60 62 63 63 63 63 63 63 64 65 66 65 65 64 64 64 64 65 65 66 66 67 66 68 68 67 67 67 67 67 66 64 65 65 66 67 66 66 67 66 67 67 67 67 68 67 66 65 65 65 64 64 64 64 65 65 66 65 65 65 65 65 65 64 63 62 63 63 61 61 61
6 3 3 4 5 7 7 7 7 6 13 10 9 6 3 5 9 3 6 11 40 44 44 51 55 58 61 62 63 63 63 63 64 64 64 63 64 65 64 65 64 64 65 65 66 66 66 66 66 66 67 66 68 67 66 65 65 65 65 66 66 66 66 66 67 67 67 67 67 66 68 68 66 65 64 64 64 63 63 64 65 66 66 65 66 65 66 66 65 64 64 64 63 63 62 61 63
4 2 2 1 4 5 6 5 5 9 13 11 11 7 3 3 6 3 4 7 12 40 44 50 54 57 60 61 62 63 63 64 63 61 60 60 62 63 62 64 64 64 63 64 66 65 65 65 66 67 67 66 67 67 66 65 65 65 65 65 66 66 67 67 67 67 67 67 68 67 67 67 66 65 65 64 64 64 63 63 64 65 65 65 66 65 66 65 66 66 65 65 64 64 64 63 63
4 7 4 2 0 2 7 4 4 9 8 8 8 6 2 2 2 3 4 5 10 26 35 49 55 58 61 62 62 62 62 61 60 60 61 62 63 64 63 63 64 64 64 65 65 65 65 65 65 66 66 66 65 65 65 65 65 65 65 66 66 66 66 66 66 66 66 66 67 67 66 66 66 65 64 64 64 63 63 63 64 65 66 66 66 66 66 65 65 66 65 65 65 64 64 63 63
4 5 5 3 2 1 4 10 7 7 9 9 7 4 3 -0 0 2 5 5 6 22 47 51 58 60 61 61 61 61 61 60 59 60 61 62 63 64 64 63 63 64 64 64 64 64 65 66 66 65 65 65 65 64 65 65 65 66 66 66 67 66 65 65 66 66 66 66 67 66 66 66 66 65 64 63 63 63 63 64 64 66 66 65 65 65 65 65 65 65 65 64 65 63 63 63 62
5 6 6 8 8 6 8 8 6 4 7 8 1 4 7 1 0 2 4 5 4 19 49 54 57 59 60 60 60 61 60 59 59 59 60 61 63 63 63 63 63 63 64 63 64 64 64 64 65 64 64 65 65 65 65 65 65 65 65 65 66 65 65 66 66 66 67 67 67 66 66 66 65 65 65 64 64 63 64 65 66 65 65 65 65 65 65 63 64 64 64 64 63 63 63 63 62
6 4 6 4 6 7 6 8 5 3 5 5 2 9 5 4 1 1 3 3 4 15 50 53 56 58 59 60 60 60 59 59 58 60 61 63 64 63 63 62 63 64 64 64 65 64 64 64 65 64 65 64 64 65 65 65 65 65 65 66 65 66 67 65 66 66 67 67 66 66 66 66 65 65 66 66 64 64 65 65 64 64 65 65 65 65 65 63 64 64 64 64 63 63 63 63 63
12 9 23 13 6 4 3 4 4 4 3 3 3 4 3 1 1 1 2 2 5 34 50 53 55 58 58 59 59 59 58 58 59 60 61 62 63 63 62 63 63 63 63 64 64 64 65 65 64 64 64 64 64 65 65 64 64 65 65 66 67 67 66 66 66 66 67 66 66 65 66 66 65 65 66 66 65 65 65 65 65 66 65 65 65 65 64 64 63 63 64 64 63 62 63 63 62
18 12 11 14 8 9 3 4 3 3 2 2 3 1 5 8 2 1 1 1 2 37 51 54 56 57 58 58 58 59 58 59 59 59 60 62 61 62 64 64 63 62 63 63 64 64 64 64 63 63 64 64 64 65 65 65 65 66 66 67 67 66 66 66 67 67 67 67 66 65 66 66 66 65 66 66 65 65 64 64 64 65 64 64 64 64 64 64 63 63 64 63 63 63 62 62 61
17 20 16 12 6 5 4 2 1 1 1 3 4 3 4 1 0 2 1 1 2 44 54 56 57 57 57 58 59 59 58 58 58 59 60 60 61 62 63 63 62 62 63 64 64 64 64 64 64 65 65 65 65 64 65 65 65 65 65 66 65 65 65 66 66 66 66 66 65 67 67 67 67 66 66 66 65 65 64 64 63 64 64 64 64 64 63 63 64 64 62 62 63 63 62 63 62
11 12 16 12 13 4 2 3 3 -1 1 0 3 2 1 1 2 4 8 19 15 51 54 56 57 57 57 57 58 58 56 57 58 60 61 61 62 63 63 63 62 62 63 64 64 64 64 65 65 66 66 66 65 65 66 65 65 64 64 64 64 64 63 64 65 65 65 65 66 67 67 67 66 66 66 66 65 64 63 63 63 63 63 64 64 64 62 62 63 63 63 63 63 63 63 64 63
10 8 7 5 6 5 4 2 1 0 -1 2 4 5 1 2 4 7 8 20 31 52 53 55 56 57 57 56 57 56 56 56 57 59 60 61 62 62 63 62 62 62 63 63 63 64 64 65 65 65 66 66 65 65 64 64 63 63 62 63 62 62 61 62 63 63 64 64 65 66 66 66 65 65 66 65 64 66 63 63 64 63 63 64 64 63 63 63 64 63 64 62 62 62 62 62 63
15 13 8 6 4 3 4 3 2 -1 15 3 6 7 3 5 8 9 13 18 50 51 52 54 55 56 56 56 55 54 55 56 57 58 60 61 61 62 62 61 61 61 61 62 63 63 64 65 64 65 65 65 64 64 64 63 62 62 61 60 60 60 61 60 61 62 63 64 65 66 66 66 66 65 66 65 64 64 63 63 63 63 64 63 63 64 62 63 64 64 63 62 62 62 61 63 63
21 17 14 11 9 9 10 11 3 -1 16 6 4 3 8 11 10 8 15 23 47 52 52 53 54 54 55 56 54 53 54 54 55 57 60 61 62 62 62 61 60 60 61 62 62 63 63 64 64 64 63 63 63 63 62 62 62 61 60 60 58 57 57 59 60 61 63 64 64 65 65 65 65 65 65 65 64 64 63 64 63 63 63 63 62 62 63 62 63 63 63 61 59 60 62 63 62
21 19 16 13 11 12 11 14 8 7 7 11 7 5 12 15 15 15 20 18 27 48 51 51 52 53 56 55 54 53 52 53 55 58 59 61 62 62 61 60 60 60 60 61 62 62 63 63 63 63 62 61 61 62 62 61 60 61 61 61 62 57 57 60 60 61 60 61 63 64 65 64 63 64 63 65 65 64 62 63 63 62 64 63 62 62 61 63 62 63 63 61 60 59 60 59 61
22 21 15 12 11 10 10 17 21 33 30 33 21 26 23 22 10 10 14 23 27 38 51 50 50 53 56 56 54 53 52 53 56 58 60 61 62 62 61 60 60 60 60 61 62 62 63 62 62 62 62 61 61 61 61 61 61 60 61 59 57 57 58 57 56 58 59 61 61 63 63 63 64 64 64 65 65 64 64 63 63 63 63 63 63 63 63 63 63 63 62 62 60 59 59 59 59
23 26 18 14 15 15 16 22 19 24 18 31 15 13 20 22 20 16 12 16 17 26 48 48 47 53 54 54 53 53 54 55 56 58 60 61 62 62 62 60 60 60 60 61 61 62 62 62 62 62 62 62 61 60 60 60 59 57 56 54 54 54 55 53 50 52 57 58 58 60 62 63 63 62 62 63 64 64 63 63 63 63 63 63 63 63 64 63 63 63 63 62 62 61 59 59 58
22 25 23 18 15 17 18 18 20 19 17 26 29 12 18 22 15 17 18 16 9 29 48 47 48 52 53 53 52 53 54 55 58 59 60 61 62 62 62 62 60 60 60 61 61 62 62 62 61 62 62 62 61 60 60 61 59 58 56 55 55 56 57 57 57 57 56 58 57 58 59 60 62 62 62 62 62 63 63 64 63 63 63 63 64 63 62 63 61 61 62 62 61 62 60 58 58
19 28 20 17 14 15 20 18 14 13 30 30 26 19 14 16 18 17 19 16 11 30 46 47 49 52 52 52 52 54 55 56 58 59 60 61 61 62 62 62 61 61 62 62 62 62 61 61 61 62 62 63 63 62 60 61 58 58 57 57 59 56 53 52 53 54 54 55 56 56 57 59 58 60 61 62 62 63 62 62 62 61 62 62 63 63 62 63 63 61 61 61 61 62 61 58 58
20 25 19 17 14 10 9 9 12 18 21 16 23 13 15 17 19 22 21 17 19 43 47 46 51 52 52 51 52 55 55 56 58 59 60 61 61 61 62 62 63 63 62 62 62 62 62 62 62 62 63 63 63 62 62 61 59 60 59 57 56 56 53 53 55 55 54 58 56 58 56 57 56 55 57 57 57 58 60 59 61 61 62 62 63 62 62 63 61 61 61 62 61 61 61 59 59
19 15 15 14 10 7 8 11 7 31 19 17 21 28 15 17 25 19 17 15 18 39 45 46 50 51 50 50 51 55 55 56 58 59 60 60 61 62 62 63 63 63 62 62 63 63 62 61 62 62 62 62 62 61 62 60 59 59 54 54 53 52 53 53 52 52 55 55 54 57 57 57 58 58 57 57 58 59 59 57 57 58 58 59 61 58 60 60 61 62 62 62 61 61 61 60 59
15 13 11 9 8 10 10 16 15 22 13 20 26 31 21 17 27 25 29 26 23 35 45 46 50 50 50 50 51 55 55 56 57 59 60 60 61 62 63 62 62 63 63 63 62 62 61 61 61 61 61 61 60 60 59 58 60 55 52 52 53 54 54 53 53 53 54 51 51 55 56 57 56 57 57 58 57 58 59 60 58 58 57 59 59 59 60 60 60 61 61 62 61 61 60 60 60
8 11 11 12 13 14 12 16 14 9 14 21 19 25 22 17 25 34 36 40 37 32 44 47 49 50 50 51 53 55 55 56 58 59 58 59 60 62 62 62 62 63 63 62 62 61 61 61 61 61 61 61 60 60 59 59 59 55 53 53 54 55 54 53 52 53 53 53 53 56 56 57 57 56 56 56 56 57 58 58 58 58 59 58 58 59 60 61 62 62 62 61 61 60 60 60 60
6 10 11 10 14 9 10 7 6 8 13 18 19 17 26 18 30 35 41 44 42 36 44 47 49 50 51 52 54 56 57 57 58 58 58 58 60 61 61 62 62 62 62 62 61 61 61 61 61 60 60 60 60 60 59 59 58 56 55 54 55 54 53 53 54 53 54 52 55 55 56 55 55 56 56 56 57 58 59 58 57 57 57 58 58 59 60 62 62 61 61 60 60 59 59 59 58
7 6 14 12 12 9 7 11 11 10 19 17 20 19 20 30 33 37 42 44 46 48 48 49 50 50 51 54 55 56 57 57 57 58 57 58 59 60 61 61 62 62 62 62 61 61 61 61 60 60 59 59 60 60 59 59 58 57 56 55 55 55 54 54 54 55 55 54 55 53 55 55 56 55 55 55 57 57 57 57 57 57 57 56 58 59 60 60 60 60 60 59 59 58 58 58 56
6 8 6 17 13 16 8 8 7 9 14 18 9 19 26 26 31 39 40 43 46 48 49 50 51 51 53 55 55 56 56 56 57 57 57 57 58 59 60 61 61 61 62 61 61 61 61 61 60 59 59 60 61 60 59 59 59 58 57 56 56 55 54 54 55 55 55 54 53 55 57 56 56 57 55 55 58 57 57 57 57 58 57 56 58 58 59 59 58 58 59 58 58 57 54 52 51
14 11 11 13 18 18 11 17 19 19 16 20 27 23 32 30 40 39 40 43 47 48 48 49 50 50 52 55 55 55 56 56 56 57 57 58 58 59 60 60 61 61 61 61 61 61 61 61 60 60 60 61 61 60 58 59 59 59 59 56 56 56 57 55 54 55 54 55 57 57 56 56 55 55 55 54 54 54 55 56 57 57 55 54 55 55 55 53 53 53 53 52 52 53 50 51 52
34 11 12 14 19 19 17 24 29 20 21 16 27 29 32 32 36 41 45 42 45 47 47 47 48 49 50 52 54 55 55 56 56 57 58 58 59 59 59 59 59 60 61 61 61 60 60 60 60 61 61 61 61 60 59 60 60 59 59 58 57 56 54 53 54 55 56 58 57 55 55 55 55 54 54 53 53 54 56 55 51 50 51 52 53 53 52 51 51 50 50 50 50 51 50 48 49
26 15 12 8 7 22 20 18 18 15 14 18 26 26 26 28 26 36 42 42 43 46 46 46 47 48 49 51 53 54 55 56 57 57 57 57 57 57 57 57 58 60 60 59 60 61 61 60 60 60 59 59 59 60 61 60 59 59 59 58 57 56 55 55 55 55 55 54 54 53 54 54 54 55 56 55 54 53 55 56 53 53 53 54 51 51 52 52 50 49 47 48 49 50 51 52 52
15 18 33 17 11 13 25 16 14 12 10 16 23 30 29 28 32 32 42 42 43 44 45 46 46 47 48 49 51 53 55 56 56 55 55 56 56 56 56 57 59 60 59 59 60 60 59 59 60 59 59 59 59 59 59 59 60 60 59 57 56 56 55 55 56 55 53 53 54 54 53 53 53 54 52 50 51 51 51 51 52 50 49 50 52 50 49 48 48 48 50 50 50 50 50 50 51
9 17 17 16 19 23 17 17 21 19 23 16 22 27 25 38 34 40 40 43 44 44 43 43 45 48 51 52 53 53 54 55 55 55 56 56 56 57 57 57 59 59 59 59 59 59 59 59 59 59 58 58 59 59 59 58 59 60 58 56 56 55 55 55 55 54 53 53 53 52 51 50 51 52 50 50 50 51 51 50 50 50 48 50 48 47 46 47 48 49 49 49 50 50 50 50 50
9 12 18 16 30 38 28 31 17 20 22 22 26 25 30 36 37 43 44 43 45 45 45 45 46 50 52 53 53 53 54 54 54 55 56 57 56 56 58 57 57 58 58 58 59 58 58 59 59 58 58 59 59 59 60 59 60 59 56 54 54 55 55 55 55 55 54 54 53 52 51 51 50 49 51 51 49 48 49 50 48 49 49 50 48 48 48 48 49 48 48 48 48 48 49 49 49
17 20 23 15 29 14 14 22 25 24 24 27 26 25 33 41 40 46 45 45 46 48 48 48 49 50 51 52 52 53 53 53 53 55 55 57 56 56 55 54 55 56 57 58 59 59 58 59 59 58 58 59 58 58 58 58 60 58 55 55 55 54 54 54 53 54 55 55 55 53 52 51 50 51 52 52 48 49 47 47 48 48 49 49 49 49 50 50 48 46 47 50 49 48 49 49 49